GEC45 EDDF-HAAB

Flight info

Callsign GEC45
Flight time N/A
Altitude 33000
Route CINDY8S CINDY Z74 LAMPU DCT NOMBO Y161 MAH DCT VAVOR DCT RADIZ DCT VILAK DCT DOL DCT NIVES DCT VRANA DCT DIMIS DCT SALUN/N0480F350 N705 BOPIX N710 TAKRI P751 TOMRU DCT KSL/N0489F360 DCT ALRAP/N0488F370 T124 AMUDO AMUDO1A
Aircraft MD11/H-SDE1E2E3FGHIJ2J3J4J5M1RWXY/LB1D1

Departure

Time 2026-05-06 07:20
Airport Frankfurt Main Airport (EDDF)

Arrival

Time N/A
Airport Addis Ababa Bole International Airport (HAAB)
Time Latitude Longitude Altitude Speed Heading
2026-05-06 06:44 50.03751 8.53228 363 ft 0 kts 339°
2026-05-06 07:09 50.03732 8.53239 363 ft 4 kts 326°
2026-05-06 07:09 50.03715 8.53263 360 ft 4 kts 292°
2026-05-06 07:10 50.03711 8.53296 363 ft 4 kts 252°
2026-05-06 07:10 50.03721 8.53334 363 ft 4 kts 245°
2026-05-06 07:10 50.03726 8.53350 363 ft 0 kts 250°
2026-05-06 07:16 50.03711 8.53316 363 ft 7 kts 227°
2026-05-06 07:16 50.03662 8.53247 362 ft 6 kts 227°
2026-05-06 07:16 50.03638 8.53193 357 ft 6 kts 242°
2026-05-06 07:16 50.03625 8.53142 357 ft 5 kts 247°
2026-05-06 07:17 50.03611 8.53096 357 ft 5 kts 244°
2026-05-06 07:17 50.03580 8.53058 360 ft 6 kts 200°
2026-05-06 07:17 50.03528 8.53046 359 ft 8 kts 204°
2026-05-06 07:17 50.03497 8.52968 358 ft 10 kts 249°
2026-05-06 07:18 50.03467 8.52851 359 ft 14 kts 247°
2026-05-06 07:18 50.03441 8.52759 359 ft 0 kts 246°
2026-05-06 07:18 50.03435 8.52738 358 ft 5 kts 246°
2026-05-06 07:19 50.03414 8.52652 358 ft 11 kts 247°
2026-05-06 07:19 50.03341 8.52598 358 ft 14 kts 183°
2026-05-06 07:19 50.03067 8.52598 353 ft 77 kts 180°
2026-05-06 07:19 50.02285 8.52606 358 ft 143 kts 180°
2026-05-06 07:20 50.01155 8.52628 588 ft 173 kts 180°
2026-05-06 07:20 49.99921 8.52694 1383 ft 180 kts 181°
2026-05-06 07:20 49.98689 8.52752 2436 ft 178 kts 185°
2026-05-06 07:20 49.97426 8.52966 3472 ft 195 kts 168°
2026-05-06 07:21 49.96139 8.54237 3763 ft 247 kts 136°
2026-05-06 07:21 49.95073 8.56602 3979 ft 285 kts 123°
2026-05-06 07:21 49.94118 8.59304 4789 ft 291 kts 121°
2026-05-06 07:21 49.93165 8.62091 5759 ft 296 kts 121°
2026-05-06 07:22 49.92191 8.64918 7030 ft 299 kts 121°
2026-05-06 07:22 49.91210 8.67733 8306 ft 303 kts 122°
2026-05-06 07:22 49.90192 8.70623 9556 ft 307 kts 122°
2026-05-06 07:22 49.89130 8.73608 10193 ft 334 kts 122°
2026-05-06 07:23 49.87942 8.76912 10585 ft 361 kts 122°
2026-05-06 07:23 49.86712 8.80344 11666 ft 367 kts 122°
2026-05-06 07:23 49.85463 8.83829 12762 ft 372 kts 122°
2026-05-06 07:23 49.84195 8.87358 13827 ft 377 kts 122°
2026-05-06 07:24 49.82909 8.90927 14746 ft 382 kts 122°
2026-05-06 07:24 49.81602 8.94545 15647 ft 387 kts 122°
2026-05-06 07:24 49.80280 8.98200 16549 ft 392 kts 122°
2026-05-06 07:24 49.78939 9.01899 17407 ft 397 kts 122°
2026-05-06 07:25 49.77579 9.05645 18225 ft 402 kts 122°
2026-05-06 07:25 49.76304 9.09522 18893 ft 408 kts 115°
2026-05-06 07:25 49.75375 9.13709 19587 ft 415 kts 109°
2026-05-06 07:25 49.74492 9.17977 20176 ft 417 kts 116°
2026-05-06 07:26 49.73059 9.21852 20873 ft 417 kts 128°
2026-05-06 07:26 49.71260 9.25382 21562 ft 419 kts 134°
2026-05-06 07:26 49.69313 9.28773 22283 ft 424 kts 135°
2026-05-06 07:26 49.67316 9.32150 22994 ft 428 kts 135°
2026-05-06 07:27 49.65300 9.35575 23661 ft 433 kts 135°
2026-05-06 07:27 49.63292 9.39021 24278 ft 437 kts 137°
2026-05-06 07:27 49.61046 9.42153 24960 ft 434 kts 147°
2026-05-06 07:27 49.58555 9.44773 25658 ft 434 kts 153°
2026-05-06 07:28 49.55950 9.47167 26330 ft 437 kts 155°
2026-05-06 07:28 49.53344 9.49455 27033 ft 439 kts 156°
2026-05-06 07:28 49.48000 9.54173 28428 ft 446 kts 155°
2026-05-06 07:29 49.45280 9.56621 29133 ft 449 kts 155°
2026-05-06 07:29 49.42614 9.59042 29784 ft 453 kts 155°
2026-05-06 07:29 49.39897 9.61520 30303 ft 456 kts 155°
2026-05-06 07:29 49.37166 9.64015 30878 ft 457 kts 155°
2026-05-06 07:30 49.34461 9.66564 31437 ft 460 kts 151°
2026-05-06 07:30 49.31936 9.69600 31798 ft 462 kts 144°
2026-05-06 07:30 49.29596 9.72997 32185 ft 464 kts 141°
2026-05-06 07:30 49.27341 9.76534 32581 ft 464 kts 139°
2026-05-06 07:31 49.25108 9.80100 32743 ft 464 kts 139°
2026-05-06 07:31 49.22860 9.83661 32789 ft 467 kts 140°
2026-05-06 07:31 49.18299 9.90742 32798 ft 467 kts 141°
2026-05-06 07:32 49.13706 9.97753 32799 ft 466 kts 141°
2026-05-06 07:32 49.09105 10.04732 32802 ft 466 kts 141°
2026-05-06 07:33 49.04446 10.11620 32807 ft 466 kts 142°
2026-05-06 07:33 48.99698 10.18330 32794 ft 467 kts 143°
2026-05-06 07:34 48.94906 10.25058 32828 ft 469 kts 143°
2026-05-06 07:34 48.90121 10.31811 32830 ft 469 kts 143°
2026-05-06 07:35 48.85341 10.38569 32841 ft 469 kts 143°
2026-05-06 07:35 48.80636 10.45484 32829 ft 473 kts 140°
2026-05-06 07:36 48.76105 10.52737 32802 ft 475 kts 139°
2026-05-06 07:36 48.71575 10.60064 32829 ft 477 kts 140°
2026-05-06 07:37 48.67018 10.67354 32834 ft 477 kts 140°
2026-05-06 07:37 48.62446 10.74617 32834 ft 477 kts 140°
2026-05-06 07:38 48.57903 10.81826 32829 ft 477 kts 140°
2026-05-06 07:38 48.54083 10.87928 32797 ft 478 kts 140°
2026-05-06 07:39 48.48762 10.96415 32827 ft 479 kts 140°
2026-05-06 07:39 48.44901 11.02483 32829 ft 479 kts 141°
2026-05-06 07:40 48.40279 11.09701 32828 ft 479 kts 141°
2026-05-06 07:40 48.35653 11.16910 32825 ft 479 kts 141°
2026-05-06 07:41 48.31060 11.24054 32802 ft 478 kts 141°
2026-05-06 07:41 48.26473 11.31307 32821 ft 482 kts 137°
2026-05-06 07:42 48.22698 11.39762 32826 ft 493 kts 127°
2026-05-06 07:42 48.19391 11.48746 32825 ft 494 kts 126°
2026-05-06 07:43 48.16053 11.57742 32823 ft 493 kts 126°
2026-05-06 07:43 48.12648 11.66642 32822 ft 492 kts 127°
2026-05-06 07:44 48.09212 11.75502 32818 ft 492 kts 127°
2026-05-06 07:44 48.05773 11.84338 32820 ft 492 kts 127°
2026-05-06 07:45 48.02328 11.93168 32809 ft 491 kts 127°
2026-05-06 07:45 47.98884 12.01971 32815 ft 491 kts 127°
2026-05-06 07:46 47.95430 12.10767 32818 ft 491 kts 128°
2026-05-06 07:46 47.91335 12.18582 32816 ft 474 kts 144°
2026-05-06 07:47 47.86322 12.24844 32817 ft 469 kts 149°
2026-05-06 07:47 47.81217 12.30897 32817 ft 470 kts 148°
2026-05-06 07:48 47.76176 12.37091 32806 ft 470 kts 147°
2026-05-06 07:48 47.71176 12.43351 32820 ft 469 kts 147°
2026-05-06 07:49 47.66189 12.49600 32807 ft 469 kts 147°
2026-05-06 07:49 47.61206 12.55862 32818 ft 471 kts 146°
2026-05-06 07:50 47.56481 12.62639 32799 ft 475 kts 141°
2026-05-06 07:50 47.51891 12.69688 32819 ft 476 kts 141°
2026-05-06 07:51 47.47314 12.76709 32818 ft 472 kts 141°
2026-05-06 07:51 47.42729 12.83659 32820 ft 472 kts 142°
2026-05-06 07:52 47.38137 12.90575 32831 ft 471 kts 142°
2026-05-06 07:52 47.33541 12.97477 32814 ft 472 kts 142°
2026-05-06 07:53 47.28939 13.04373 32849 ft 471 kts 142°
2026-05-06 07:53 47.24338 13.11252 32849 ft 473 kts 142°
2026-05-06 07:54 47.19717 13.18140 32872 ft 472 kts 142°
2026-05-06 07:54 47.15138 13.24954 32875 ft 471 kts 142°
2026-05-06 07:55 47.10516 13.31807 32882 ft 475 kts 142°
2026-05-06 07:55 47.05851 13.38702 32887 ft 477 kts 142°
2026-05-06 07:56 47.01183 13.45568 32903 ft 477 kts 142°
2026-05-06 07:56 46.96480 13.52428 32907 ft 478 kts 142°
2026-05-06 07:57 46.91793 13.59282 32907 ft 478 kts 142°
2026-05-06 07:57 46.87080 13.66175 32913 ft 481 kts 142°
2026-05-06 07:58 46.82350 13.73083 32912 ft 481 kts 142°
2026-05-06 07:58 46.77614 13.79983 32906 ft 481 kts 142°
2026-05-06 07:59 46.72872 13.86870 32908 ft 481 kts 142°
2026-05-06 07:59 46.68118 13.93726 32909 ft 482 kts 142°
2026-05-06 08:00 46.63315 14.00576 32920 ft 484 kts 142°
2026-05-06 08:00 46.58511 14.07429 32934 ft 484 kts 142°
2026-05-06 08:01 46.53703 14.14285 32932 ft 484 kts 142°
2026-05-06 08:01 46.48892 14.21128 32928 ft 484 kts 142°
2026-05-06 08:02 46.44069 14.27967 32937 ft 486 kts 142°
2026-05-06 08:02 46.39225 14.34820 32954 ft 487 kts 142°
2026-05-06 08:03 46.34375 14.41666 32954 ft 487 kts 142°
2026-05-06 08:03 46.29519 14.48501 32965 ft 487 kts 142°
2026-05-06 08:04 46.24688 14.55281 32948 ft 490 kts 142°
2026-05-06 08:04 46.19779 14.62149 32963 ft 492 kts 142°
2026-05-06 08:05 46.14862 14.69017 32959 ft 492 kts 142°
2026-05-06 08:05 46.09936 14.75867 32957 ft 491 kts 142°
2026-05-06 08:06 46.04957 14.82607 32933 ft 491 kts 143°
2026-05-06 08:06 45.99927 14.89316 32954 ft 495 kts 143°
2026-05-06 08:07 45.94873 14.96068 32955 ft 496 kts 143°
2026-05-06 08:07 45.89821 15.02819 32936 ft 496 kts 143°
2026-05-06 08:08 45.84761 15.09566 32951 ft 496 kts 143°
2026-05-06 08:08 45.79691 15.16305 32942 ft 499 kts 143°
2026-05-06 08:09 45.74601 15.23053 32949 ft 499 kts 143°
2026-05-06 08:09 45.69501 15.29799 32957 ft 499 kts 143°
2026-05-06 08:10 45.64398 15.36529 32955 ft 499 kts 143°
2026-05-06 08:10 45.59295 15.43243 32957 ft 499 kts 143°
2026-05-06 08:11 45.54185 15.49947 32962 ft 499 kts 143°
2026-05-06 08:11 45.49070 15.56642 32956 ft 499 kts 143°
2026-05-06 08:12 45.44057 15.63142 32960 ft 499 kts 144°
2026-05-06 08:12 45.38920 15.69787 32925 ft 499 kts 143°
2026-05-06 08:13 45.33784 15.76446 32954 ft 499 kts 143°
2026-05-06 08:13 45.28622 15.83047 32951 ft 498 kts 145°
2026-05-06 08:14 45.23298 15.89305 32963 ft 497 kts 147°
2026-05-06 08:14 45.17914 15.95455 32959 ft 497 kts 147°
2026-05-06 08:15 45.12540 16.01606 32956 ft 497 kts 146°
2026-05-06 08:15 45.07174 16.07766 32957 ft 497 kts 146°
2026-05-06 08:16 45.01807 16.13920 32956 ft 496 kts 146°
2026-05-06 08:16 44.96448 16.20048 32961 ft 496 kts 146°
2026-05-06 08:17 44.91081 16.26168 32959 ft 496 kts 146°
2026-05-06 08:17 44.85704 16.32284 32969 ft 497 kts 146°
2026-05-06 08:18 44.80360 16.38349 32968 ft 497 kts 146°
2026-05-06 08:18 44.74982 16.44438 32961 ft 495 kts 146°
2026-05-06 08:19 44.69615 16.50498 32956 ft 494 kts 146°
2026-05-06 08:19 44.64243 16.56541 32967 ft 494 kts 146°
2026-05-06 08:20 44.58865 16.62536 32987 ft 494 kts 146°
2026-05-06 08:20 44.53484 16.68544 32980 ft 494 kts 146°
2026-05-06 08:21 44.48129 16.74531 32964 ft 492 kts 146°
2026-05-06 08:21 44.42781 16.80497 32993 ft 491 kts 145°
2026-05-06 08:22 44.37433 16.86449 32992 ft 491 kts 146°
2026-05-06 08:22 44.32081 16.92390 33000 ft 491 kts 146°
2026-05-06 08:23 44.26733 16.98313 32997 ft 490 kts 146°
2026-05-06 08:23 44.21381 17.04225 33005 ft 491 kts 145°
2026-05-06 08:24 44.16018 17.10134 33017 ft 492 kts 145°
2026-05-06 08:24 44.10655 17.16032 33021 ft 491 kts 145°
2026-05-06 08:25 44.05284 17.21923 33019 ft 491 kts 145°
2026-05-06 08:25 43.99913 17.27797 33025 ft 492 kts 145°
2026-05-06 08:26 43.94511 17.33652 33032 ft 493 kts 145°
2026-05-06 08:26 43.89115 17.39502 33033 ft 493 kts 145°
2026-05-06 08:27 43.84601 17.44312 33044 ft 491 kts 147°
2026-05-06 08:27 43.78972 17.49566 33048 ft 489 kts 150°
2026-05-06 08:28 43.73233 17.54639 33051 ft 490 kts 150°
2026-05-06 08:28 43.67494 17.59727 33060 ft 490 kts 150°
2026-05-06 08:29 43.61764 17.64841 33040 ft 490 kts 150°
2026-05-06 08:29 43.56039 17.69951 33054 ft 490 kts 150°
2026-05-06 08:30 43.50319 17.75047 33055 ft 489 kts 150°
2026-05-06 08:30 43.44586 17.80138 33054 ft 491 kts 150°
2026-05-06 08:31 43.38844 17.85226 33058 ft 491 kts 150°
2026-05-06 08:31 43.33101 17.90302 33045 ft 491 kts 150°
2026-05-06 08:32 43.27355 17.95371 33044 ft 491 kts 150°
2026-05-06 08:32 43.21615 18.00423 33045 ft 491 kts 150°
2026-05-06 08:33 43.15866 18.05470 33047 ft 491 kts 151°
2026-05-06 08:33 43.10097 18.10492 33061 ft 491 kts 151°
2026-05-06 08:34 43.01489 18.17985 33069 ft 491 kts 151°
2026-05-06 08:35 42.95727 18.23004 33072 ft 491 kts 151°
2026-05-06 08:35 42.89959 18.28019 33074 ft 491 kts 151°
2026-05-06 08:36 42.84195 18.33018 33070 ft 492 kts 151°
2026-05-06 08:36 42.78421 18.38013 33087 ft 492 kts 151°
2026-05-06 08:37 42.72647 18.42998 33085 ft 492 kts 151°
2026-05-06 08:37 42.66857 18.47985 33092 ft 493 kts 151°
2026-05-06 08:38 42.61067 18.52961 33093 ft 493 kts 151°
2026-05-06 08:38 42.55274 18.57929 33099 ft 493 kts 151°
2026-05-06 08:39 42.49463 18.62900 33102 ft 493 kts 151°
2026-05-06 08:39 42.43660 18.67846 33102 ft 493 kts 151°
2026-05-06 08:40 42.37847 18.72766 33108 ft 493 kts 151°
2026-05-06 08:40 42.32033 18.77691 33105 ft 493 kts 151°
2026-05-06 08:41 42.26203 18.82633 33104 ft 495 kts 151°
2026-05-06 08:41 42.20405 18.87540 33104 ft 495 kts 151°
2026-05-06 08:42 42.14566 18.92471 33106 ft 495 kts 151°
2026-05-06 08:42 42.08706 18.97408 33103 ft 495 kts 151°
2026-05-06 08:43 42.02897 19.02291 33102 ft 495 kts 151°
2026-05-06 08:43 41.97051 19.07194 33098 ft 495 kts 151°
2026-05-06 08:44 41.91205 19.12086 33108 ft 495 kts 151°
2026-05-06 08:44 41.85339 19.16982 33113 ft 497 kts 151°
2026-05-06 08:45 41.79497 19.21850 33111 ft 497 kts 151°
2026-05-06 08:45 41.73624 19.26728 33104 ft 497 kts 151°
2026-05-06 08:46 41.67737 19.31582 33101 ft 497 kts 151°
2026-05-06 08:46 41.61854 19.36435 33103 ft 497 kts 151°
2026-05-06 08:47 41.55975 19.41288 33106 ft 497 kts 151°
2026-05-06 08:47 41.50101 19.46131 33102 ft 496 kts 151°
2026-05-06 08:48 41.44213 19.50973 33103 ft 498 kts 151°
2026-05-06 08:48 41.38319 19.55810 33106 ft 498 kts 151°
2026-05-06 08:49 41.32420 19.60640 33104 ft 498 kts 151°
2026-05-06 08:49 41.26526 19.65456 33103 ft 497 kts 151°
2026-05-06 08:50 41.20638 19.70257 33106 ft 496 kts 151°
2026-05-06 08:50 41.14753 19.75044 33102 ft 496 kts 151°
2026-05-06 08:51 41.08903 19.79793 33102 ft 496 kts 151°
2026-05-06 08:51 41.02996 19.84575 33106 ft 498 kts 151°
2026-05-06 08:52 40.97072 19.89334 33101 ft 498 kts 151°
2026-05-06 08:52 40.91151 19.94094 33100 ft 498 kts 151°
2026-05-06 08:53 40.85235 19.98853 33105 ft 498 kts 151°
2026-05-06 08:53 40.79343 20.03587 33767 ft 497 kts 151°
2026-05-06 08:53 40.76394 20.05954 34155 ft 495 kts 151°
2026-05-06 08:54 40.73453 20.08311 34520 ft 494 kts 151°
2026-05-06 08:54 40.70518 20.10659 34882 ft 493 kts 151°
2026-05-06 08:54 40.67580 20.13008 35060 ft 494 kts 151°
2026-05-06 08:55 40.61689 20.17708 35103 ft 496 kts 151°
2026-05-06 08:55 40.55788 20.22408 35115 ft 496 kts 151°
2026-05-06 08:56 40.49881 20.27104 35100 ft 496 kts 151°
2026-05-06 08:56 40.43974 20.31789 35121 ft 496 kts 151°
2026-05-06 08:57 40.37990 20.36255 35100 ft 495 kts 154°
2026-05-06 08:57 40.31960 20.40501 35111 ft 494 kts 154°
2026-05-06 08:58 40.25899 20.44754 35116 ft 494 kts 154°
2026-05-06 08:58 40.19848 20.49020 35115 ft 496 kts 154°
2026-05-06 08:59 40.13768 20.53310 35109 ft 497 kts 154°
2026-05-06 08:59 40.07737 20.57559 35114 ft 497 kts 154°
2026-05-06 09:00 40.01653 20.61836 35117 ft 496 kts 154°
2026-05-06 09:00 39.95589 20.66089 35122 ft 496 kts 154°
2026-05-06 09:01 39.89508 20.70344 35130 ft 497 kts 154°
2026-05-06 09:01 39.83428 20.74591 35126 ft 495 kts 154°
2026-05-06 09:02 39.77366 20.78817 35126 ft 494 kts 154°
2026-05-06 09:02 39.71289 20.83043 35131 ft 497 kts 154°
2026-05-06 09:03 39.65174 20.87271 35123 ft 498 kts 154°
2026-05-06 09:03 39.59062 20.91487 35123 ft 497 kts 154°
2026-05-06 09:04 39.52972 20.95692 35125 ft 497 kts 154°
2026-05-06 09:04 39.46875 20.99900 35125 ft 497 kts 154°
2026-05-06 09:05 39.40772 21.04103 35125 ft 497 kts 154°
2026-05-06 09:05 39.34678 21.08292 35123 ft 496 kts 154°
2026-05-06 09:06 39.28590 21.12468 35132 ft 496 kts 154°
2026-05-06 09:06 39.22485 21.16646 35127 ft 498 kts 154°
2026-05-06 09:07 39.16356 21.20833 35120 ft 499 kts 154°
2026-05-06 09:07 39.10219 21.25017 35118 ft 499 kts 154°
2026-05-06 09:08 39.04083 21.29193 35117 ft 499 kts 154°
2026-05-06 09:08 38.97951 21.33357 35117 ft 499 kts 154°
2026-05-06 09:09 38.91812 21.37504 35117 ft 498 kts 154°
2026-05-06 09:09 38.85674 21.41636 35109 ft 498 kts 154°
2026-05-06 09:10 38.79547 21.45767 35115 ft 498 kts 154°
2026-05-06 09:10 38.73416 21.49897 35117 ft 498 kts 154°
2026-05-06 09:11 38.67324 21.53995 35108 ft 498 kts 154°
2026-05-06 09:11 38.61194 21.58109 35112 ft 498 kts 154°
2026-05-06 09:12 38.55057 21.62220 35114 ft 498 kts 154°
2026-05-06 09:12 38.48946 21.66305 35116 ft 498 kts 154°
2026-05-06 09:13 38.42812 21.70398 35123 ft 498 kts 154°
2026-05-06 09:13 38.36679 21.74482 35118 ft 497 kts 155°
2026-05-06 09:14 38.30546 21.78559 35122 ft 497 kts 155°
2026-05-06 09:14 38.24409 21.82629 35111 ft 499 kts 155°
2026-05-06 09:15 38.19242 21.86042 35116 ft 499 kts 155°
2026-05-06 09:15 38.13074 21.90099 35112 ft 499 kts 155°
2026-05-06 09:16 38.06952 21.94131 35111 ft 498 kts 155°
2026-05-06 09:16 38.00801 21.98181 35112 ft 498 kts 155°
2026-05-06 09:17 37.94639 22.02231 35119 ft 498 kts 155°
2026-05-06 09:17 37.88487 22.06267 35117 ft 498 kts 155°
2026-05-06 09:18 37.82337 22.10295 35106 ft 497 kts 155°
2026-05-06 09:18 37.76187 22.14314 35127 ft 498 kts 155°
2026-05-06 09:19 37.70020 22.18335 35109 ft 499 kts 155°
2026-05-06 09:19 37.63846 22.22355 35116 ft 499 kts 155°
2026-05-06 09:20 37.57679 22.26363 35119 ft 498 kts 155°
2026-05-06 09:20 37.51514 22.30362 35117 ft 498 kts 155°
2026-05-06 09:21 37.45343 22.34349 35113 ft 498 kts 155°
2026-05-06 09:21 37.39171 22.38317 35107 ft 498 kts 155°
2026-05-06 09:22 37.33007 22.42285 35111 ft 497 kts 155°
2026-05-06 09:22 37.26894 22.46220 35116 ft 497 kts 155°
2026-05-06 09:23 37.20729 22.50182 35115 ft 498 kts 155°
2026-05-06 09:23 37.14559 22.54139 35114 ft 498 kts 155°
2026-05-06 09:24 37.08388 22.58090 35113 ft 498 kts 155°
2026-05-06 09:24 37.02217 22.62034 35112 ft 498 kts 155°
2026-05-06 09:25 36.96046 22.65970 35117 ft 498 kts 155°
2026-05-06 09:25 36.89878 22.69897 35115 ft 497 kts 155°
2026-05-06 09:26 36.83712 22.73816 35112 ft 497 kts 155°
2026-05-06 09:26 36.77549 22.77726 35113 ft 497 kts 155°
2026-05-06 09:27 36.71373 22.81629 35114 ft 498 kts 155°
2026-05-06 09:27 36.65211 22.85505 35116 ft 498 kts 155°
2026-05-06 09:28 36.59027 22.89398 35108 ft 498 kts 155°
2026-05-06 09:28 36.52891 22.93262 35118 ft 497 kts 155°
2026-05-06 09:29 36.46714 22.97146 35125 ft 497 kts 155°
2026-05-06 09:29 36.40535 23.01024 35129 ft 497 kts 155°
2026-05-06 09:30 36.34355 23.04894 35122 ft 497 kts 155°
2026-05-06 09:30 36.28180 23.08756 35129 ft 497 kts 155°
2026-05-06 09:31 36.21994 23.12616 35130 ft 499 kts 155°
2026-05-06 09:31 36.15789 23.16482 35129 ft 499 kts 155°
2026-05-06 09:32 36.09581 23.20343 35123 ft 499 kts 155°
2026-05-06 09:32 36.03372 23.24198 35120 ft 499 kts 155°
2026-05-06 09:33 35.97163 23.28040 35123 ft 499 kts 155°
2026-05-06 09:33 35.90947 23.31866 35120 ft 499 kts 155°
2026-05-06 09:34 35.84734 23.35695 35125 ft 499 kts 155°
2026-05-06 09:34 35.78522 23.39523 35125 ft 498 kts 155°
2026-05-06 09:35 35.72323 23.43339 35126 ft 498 kts 155°
2026-05-06 09:35 35.66100 23.47161 35126 ft 500 kts 155°
2026-05-06 09:36 35.59868 23.50982 35128 ft 500 kts 155°
2026-05-06 09:36 35.53678 23.54771 35126 ft 500 kts 155°
2026-05-06 09:37 35.47451 23.58576 35132 ft 500 kts 155°
2026-05-06 09:37 35.41224 23.62375 35131 ft 500 kts 155°
2026-05-06 09:38 35.34995 23.66167 35134 ft 500 kts 155°
2026-05-06 09:38 35.28766 23.69953 35129 ft 499 kts 156°
2026-05-06 09:39 35.22556 23.73717 35130 ft 498 kts 156°
2026-05-06 09:39 35.16333 23.77468 35137 ft 500 kts 156°
2026-05-06 09:40 35.10092 23.81233 35137 ft 500 kts 156°
2026-05-06 09:40 35.00742 23.86875 35132 ft 499 kts 156°
2026-05-06 09:41 34.94521 23.90622 35135 ft 498 kts 156°
2026-05-06 09:41 34.88356 23.94327 35135 ft 498 kts 156°
2026-05-06 09:42 34.82165 23.98042 35135 ft 498 kts 156°
2026-05-06 09:42 34.75943 24.01769 35128 ft 498 kts 156°
2026-05-06 09:43 34.69733 24.05484 35135 ft 497 kts 156°
2026-05-06 09:43 34.63516 24.09195 35141 ft 498 kts 156°
2026-05-06 09:44 34.57330 24.12882 35140 ft 499 kts 156°
2026-05-06 09:44 34.51104 24.16586 35140 ft 499 kts 156°
2026-05-06 09:45 34.44878 24.20272 35136 ft 498 kts 156°
2026-05-06 09:45 34.38655 24.23949 35143 ft 497 kts 156°
2026-05-06 09:46 34.32434 24.27628 35143 ft 497 kts 156°
2026-05-06 09:46 34.26218 24.31303 35142 ft 497 kts 156°
2026-05-06 09:47 34.20003 24.34970 35138 ft 496 kts 156°
2026-05-06 09:47 34.13796 24.38628 35149 ft 496 kts 156°
2026-05-06 09:48 34.07577 24.42285 35148 ft 497 kts 156°
2026-05-06 09:48 34.01356 24.45938 35147 ft 497 kts 156°
2026-05-06 09:49 33.95141 24.49620 35135 ft 498 kts 153°
2026-05-06 09:49 33.89537 24.54553 35151 ft 502 kts 140°
2026-05-06 09:50 33.84441 24.60307 35148 ft 502 kts 137°
2026-05-06 09:50 33.79349 24.66062 35148 ft 502 kts 139°
2026-05-06 09:51 33.74186 24.71711 35152 ft 502 kts 139°
2026-05-06 09:51 33.68985 24.77322 35149 ft 502 kts 140°
2026-05-06 09:52 33.63786 24.82917 35145 ft 502 kts 140°
2026-05-06 09:52 33.58585 24.88512 35151 ft 502 kts 140°
2026-05-06 09:53 33.53382 24.94104 35151 ft 502 kts 140°
2026-05-06 09:53 33.48213 24.99649 35151 ft 502 kts 140°
2026-05-06 09:54 33.42998 25.05234 35151 ft 503 kts 140°
2026-05-06 09:54 33.37775 25.10818 35154 ft 504 kts 140°
2026-05-06 09:55 33.32542 25.16403 35149 ft 504 kts 140°
2026-05-06 09:55 33.27300 25.21963 35149 ft 504 kts 140°
2026-05-06 09:56 33.22059 25.27518 35154 ft 504 kts 140°
2026-05-06 09:56 33.16821 25.33077 35160 ft 504 kts 140°
2026-05-06 09:57 33.11593 25.38620 35154 ft 505 kts 140°
2026-05-06 09:57 33.06333 25.44189 35154 ft 505 kts 140°
2026-05-06 09:58 33.01073 25.49747 35143 ft 505 kts 140°
2026-05-06 09:58 32.95814 25.55296 35153 ft 505 kts 140°
2026-05-06 09:59 32.90586 25.60801 35154 ft 505 kts 140°
2026-05-06 09:59 32.85317 25.66341 35157 ft 506 kts 140°
2026-05-06 10:00 32.80030 25.71891 35159 ft 507 kts 140°
2026-05-06 10:00 32.74737 25.77437 35159 ft 507 kts 140°
2026-05-06 10:01 32.69443 25.82974 35150 ft 507 kts 141°
2026-05-06 10:01 32.64132 25.88494 35157 ft 508 kts 141°
2026-05-06 10:02 32.58822 25.94014 35157 ft 508 kts 141°
2026-05-06 10:02 32.54403 25.98612 35156 ft 508 kts 141°
2026-05-06 10:03 32.49086 26.04141 35157 ft 509 kts 141°
2026-05-06 10:03 32.43763 26.09666 35157 ft 509 kts 141°
2026-05-06 10:04 32.38436 26.15187 35142 ft 509 kts 141°
2026-05-06 10:04 32.33110 26.20697 35150 ft 509 kts 141°
2026-05-06 10:05 32.27776 26.26206 35149 ft 509 kts 141°
2026-05-06 10:05 32.22440 26.31708 35160 ft 509 kts 141°
2026-05-06 10:06 32.17101 26.37204 35158 ft 509 kts 141°
2026-05-06 10:06 32.11756 26.42698 35164 ft 509 kts 141°
2026-05-06 10:07 32.06408 26.48183 35150 ft 509 kts 142°
2026-05-06 10:07 32.01055 26.53641 35158 ft 509 kts 142°
2026-05-06 10:08 31.95700 26.59103 35157 ft 509 kts 142°
2026-05-06 10:08 31.90345 26.64569 35158 ft 509 kts 142°
2026-05-06 10:09 31.84990 26.70029 35167 ft 509 kts 142°
2026-05-06 10:09 31.79635 26.75482 35166 ft 509 kts 142°
2026-05-06 10:10 31.74270 26.80934 35150 ft 509 kts 142°
2026-05-06 10:10 31.68911 26.86372 35160 ft 509 kts 142°
2026-05-06 10:11 31.63578 26.91774 35160 ft 510 kts 142°
2026-05-06 10:11 31.58210 26.97204 35166 ft 510 kts 142°
2026-05-06 10:12 31.52849 27.02618 35163 ft 510 kts 142°
2026-05-06 10:12 31.47485 27.08026 35168 ft 510 kts 142°
2026-05-06 10:13 31.42102 27.13438 35148 ft 510 kts 142°
2026-05-06 10:13 31.36704 27.18830 35156 ft 510 kts 143°
2026-05-06 10:14 31.30776 27.23215 35157 ft 501 kts 160°
2026-05-06 10:14 31.24279 27.26065 35157 ft 498 kts 165°
2026-05-06 10:15 31.17735 27.28737 35157 ft 499 kts 164°
2026-05-06 10:15 31.11220 27.31576 35151 ft 501 kts 163°
2026-05-06 10:16 31.04706 27.34507 35158 ft 502 kts 163°
2026-05-06 10:16 30.98332 27.37866 35145 ft 508 kts 152°
2026-05-06 10:17 30.92674 27.42878 35147 ft 513 kts 143°
2026-05-06 10:17 30.87291 27.48273 35148 ft 513 kts 143°
2026-05-06 10:18 30.81802 27.53593 35138 ft 515 kts 144°
2026-05-06 10:18 30.76224 27.58834 35150 ft 515 kts 144°
2026-05-06 10:19 30.70627 27.64049 35145 ft 515 kts 144°
2026-05-06 10:19 30.65033 27.69261 35147 ft 515 kts 144°
2026-05-06 10:20 30.59438 27.74472 35141 ft 515 kts 144°
2026-05-06 10:20 30.53843 27.79677 35128 ft 515 kts 144°
2026-05-06 10:21 30.48232 27.84888 35126 ft 519 kts 145°
2026-05-06 10:21 30.42588 27.90121 35125 ft 520 kts 145°
2026-05-06 10:22 30.36940 27.95352 35127 ft 520 kts 145°
2026-05-06 10:22 30.31286 28.00567 35124 ft 520 kts 145°
2026-05-06 10:23 30.25628 28.05770 35121 ft 520 kts 145°
2026-05-06 10:23 30.19983 28.10967 35123 ft 517 kts 145°
2026-05-06 10:24 30.14356 28.16146 35122 ft 517 kts 145°
2026-05-06 10:24 30.08734 28.21313 35117 ft 517 kts 145°
2026-05-06 10:25 30.03107 28.26476 35117 ft 517 kts 145°
2026-05-06 10:25 29.97481 28.31630 35121 ft 517 kts 145°
2026-05-06 10:26 29.91886 28.36749 35119 ft 517 kts 145°
2026-05-06 10:26 29.86280 28.41923 35105 ft 519 kts 142°
2026-05-06 10:27 29.81421 28.48080 35121 ft 525 kts 130°
2026-05-06 10:27 29.77078 28.54857 35119 ft 526 kts 128°
2026-05-06 10:28 29.72736 28.61630 35123 ft 526 kts 129°
2026-05-06 10:28 29.68312 28.68320 35118 ft 525 kts 130°
2026-05-06 10:29 29.63862 28.74959 35119 ft 524 kts 130°
2026-05-06 10:29 29.59406 28.81588 35120 ft 524 kts 130°
2026-05-06 10:30 29.54950 28.88223 35116 ft 524 kts 130°
2026-05-06 10:30 29.50499 28.94851 35115 ft 524 kts 130°
2026-05-06 10:31 29.46061 29.01449 35115 ft 526 kts 130°
2026-05-06 10:31 29.41386 29.07879 35113 ft 522 kts 139°
2026-05-06 10:32 29.35793 29.13123 35114 ft 518 kts 147°
2026-05-06 10:32 29.29953 29.17963 35113 ft 518 kts 148°
2026-05-06 10:33 29.24149 29.22878 35115 ft 519 kts 147°
2026-05-06 10:33 29.18401 29.27866 35117 ft 517 kts 146°
2026-05-06 10:34 29.12662 29.32861 35114 ft 519 kts 147°
2026-05-06 10:34 29.06853 29.37772 35116 ft 519 kts 148°
2026-05-06 10:35 29.01019 29.42637 35114 ft 519 kts 148°
2026-05-06 10:35 28.95184 29.47501 35113 ft 519 kts 148°
2026-05-06 10:36 28.89353 29.52365 35118 ft 519 kts 148°
2026-05-06 10:36 28.83557 29.57196 35109 ft 519 kts 148°
2026-05-06 10:37 28.77712 29.62060 35121 ft 521 kts 148°
2026-05-06 10:37 28.71861 29.66923 35122 ft 521 kts 148°
2026-05-06 10:38 28.66002 29.71785 35126 ft 521 kts 148°
2026-05-06 10:38 28.60145 29.76639 35126 ft 521 kts 148°
2026-05-06 10:39 28.54285 29.81488 35127 ft 521 kts 148°
2026-05-06 10:39 28.48421 29.86334 35130 ft 521 kts 148°
2026-05-06 10:40 28.42551 29.91167 35128 ft 521 kts 148°
2026-05-06 10:40 28.36669 29.95997 35132 ft 521 kts 148°
2026-05-06 10:41 28.30799 30.00821 35135 ft 521 kts 148°
2026-05-06 10:41 28.24927 30.05647 35140 ft 521 kts 148°
2026-05-06 10:42 28.19105 30.10425 35133 ft 522 kts 148°
2026-05-06 10:42 28.13220 30.15247 35139 ft 521 kts 148°
2026-05-06 10:43 28.07342 30.20058 35141 ft 521 kts 148°
2026-05-06 10:44 27.98518 30.27266 35144 ft 521 kts 148°
2026-05-06 10:44 27.92635 30.32063 35143 ft 521 kts 148°
2026-05-06 10:45 27.86749 30.36856 35133 ft 522 kts 148°
2026-05-06 10:45 27.80857 30.41647 35141 ft 522 kts 148°
2026-05-06 10:46 27.74999 30.46396 35148 ft 521 kts 148°
2026-05-06 10:46 27.69103 30.51161 35148 ft 521 kts 148°
2026-05-06 10:47 27.63210 30.55929 35148 ft 521 kts 148°
2026-05-06 10:47 27.57316 30.60695 35148 ft 521 kts 148°
2026-05-06 10:48 27.51415 30.65463 35148 ft 522 kts 149°
2026-05-06 10:48 27.45517 30.70220 35152 ft 521 kts 149°
2026-05-06 10:49 27.39621 30.74969 35153 ft 522 kts 149°
2026-05-06 10:49 27.33716 30.79719 35154 ft 522 kts 149°
2026-05-06 10:50 27.27807 30.84466 35155 ft 522 kts 149°
2026-05-06 10:50 27.21905 30.89202 35145 ft 521 kts 149°
2026-05-06 10:51 27.16007 30.93928 35156 ft 521 kts 149°
2026-05-06 10:51 27.10106 30.98648 35155 ft 520 kts 149°
2026-05-06 10:52 27.04206 31.03346 35157 ft 520 kts 149°
2026-05-06 10:52 26.99432 31.07469 35155 ft 525 kts 140°
2026-05-06 10:53 26.94594 31.13667 35154 ft 531 kts 131°
2026-05-06 10:53 26.90121 31.20270 35140 ft 532 kts 130°
2026-05-06 10:54 26.85583 31.26801 35129 ft 531 kts 132°
2026-05-06 10:54 26.80964 31.33246 35092 ft 531 kts 132°
2026-05-06 10:55 26.76321 31.39665 35091 ft 530 kts 132°
2026-05-06 10:55 26.71681 31.46079 35088 ft 530 kts 132°
2026-05-06 10:56 26.67043 31.52490 35044 ft 530 kts 132°
2026-05-06 10:56 26.62405 31.58895 35039 ft 530 kts 132°
2026-05-06 10:57 26.57759 31.65302 35016 ft 530 kts 132°
2026-05-06 10:57 26.53129 31.71676 35014 ft 530 kts 132°
2026-05-06 10:58 26.48510 31.78026 35011 ft 530 kts 133°
2026-05-06 10:58 26.43850 31.84399 35014 ft 529 kts 133°
2026-05-06 10:59 26.39197 31.90756 34993 ft 529 kts 133°
2026-05-06 10:59 26.34544 31.97122 34993 ft 529 kts 133°
2026-05-06 11:00 26.29893 32.03481 34991 ft 529 kts 133°
2026-05-06 11:00 26.25236 32.09839 34992 ft 529 kts 133°
2026-05-06 11:01 26.20581 32.16185 34994 ft 529 kts 133°
2026-05-06 11:01 26.15925 32.22523 34992 ft 529 kts 133°
2026-05-06 11:02 26.11265 32.28858 34977 ft 529 kts 133°
2026-05-06 11:02 26.06601 32.35189 34986 ft 529 kts 133°
2026-05-06 11:03 26.01932 32.41517 34990 ft 529 kts 133°
2026-05-06 11:03 25.97261 32.47840 34990 ft 529 kts 133°
2026-05-06 11:04 25.92589 32.54142 34996 ft 529 kts 134°
2026-05-06 11:04 25.87905 32.60440 35005 ft 529 kts 133°
2026-05-06 11:05 25.83264 32.66688 35009 ft 527 kts 134°
2026-05-06 11:05 25.78595 32.72967 35018 ft 527 kts 134°
2026-05-06 11:06 25.73277 32.78397 34998 ft 516 kts 150°
2026-05-06 11:06 25.67292 32.82722 34989 ft 513 kts 154°
2026-05-06 11:07 25.61253 32.86943 34989 ft 513 kts 153°
2026-05-06 11:07 25.55279 32.91281 34989 ft 512 kts 152°
2026-05-06 11:08 25.49359 32.95660 34990 ft 512 kts 152°
2026-05-06 11:08 25.43439 33.00042 34988 ft 512 kts 152°
2026-05-06 11:09 25.37518 33.04411 34985 ft 511 kts 152°
2026-05-06 11:09 25.31599 33.08770 34984 ft 511 kts 152°
2026-05-06 11:10 25.25682 33.13121 34988 ft 511 kts 152°
2026-05-06 11:10 25.19759 33.17456 34973 ft 510 kts 152°
2026-05-06 11:11 25.13840 33.21769 34982 ft 509 kts 152°
2026-05-06 11:11 25.07925 33.26076 34977 ft 509 kts 152°
2026-05-06 11:12 25.02010 33.30383 34978 ft 509 kts 152°
2026-05-06 11:12 24.96119 33.34669 34977 ft 509 kts 152°
2026-05-06 11:13 24.90271 33.38919 34979 ft 509 kts 152°
2026-05-06 11:13 24.84350 33.43216 34977 ft 509 kts 152°
2026-05-06 11:14 24.78429 33.47508 34974 ft 509 kts 152°
2026-05-06 11:14 24.72511 33.51793 34969 ft 509 kts 153°
2026-05-06 11:15 24.66596 33.56071 34969 ft 509 kts 153°
2026-05-06 11:15 24.60681 33.60344 34971 ft 509 kts 153°
2026-05-06 11:16 24.54764 33.64613 34968 ft 509 kts 153°
2026-05-06 11:16 24.48843 33.68868 34955 ft 509 kts 153°
2026-05-06 11:17 24.42934 33.73114 34944 ft 507 kts 153°
2026-05-06 11:17 24.37040 33.77350 34951 ft 506 kts 153°
2026-05-06 11:18 24.31149 33.81580 34952 ft 506 kts 153°
2026-05-06 11:18 24.25259 33.85806 34954 ft 506 kts 153°
2026-05-06 11:19 24.19364 33.90031 34949 ft 506 kts 153°
2026-05-06 11:19 24.13469 33.94251 34944 ft 506 kts 153°
2026-05-06 11:20 24.07585 33.98461 34943 ft 504 kts 153°
2026-05-06 11:20 24.01718 34.02651 34939 ft 504 kts 153°
2026-05-06 11:21 23.95848 34.06838 34942 ft 504 kts 153°
2026-05-06 11:21 23.89979 34.11019 34941 ft 504 kts 153°
2026-05-06 11:22 23.84110 34.15196 34933 ft 503 kts 153°
2026-05-06 11:22 23.78292 34.19338 34922 ft 503 kts 153°
2026-05-06 11:23 23.72403 34.23552 34934 ft 501 kts 153°
2026-05-06 11:23 23.66585 34.27719 34933 ft 500 kts 153°
2026-05-06 11:24 23.60764 34.31882 34930 ft 500 kts 153°
2026-05-06 11:24 23.54948 34.36037 34932 ft 500 kts 153°
2026-05-06 11:25 23.49167 34.40162 34928 ft 500 kts 153°
2026-05-06 11:25 23.43350 34.44308 34924 ft 500 kts 153°
2026-05-06 11:26 23.37534 34.48452 34914 ft 499 kts 154°
2026-05-06 11:26 23.31744 34.52572 34925 ft 497 kts 154°
2026-05-06 11:27 23.25959 34.56681 34921 ft 497 kts 154°
2026-05-06 11:27 23.20190 34.60774 34918 ft 497 kts 154°
2026-05-06 11:28 23.14406 34.64875 34903 ft 496 kts 154°
2026-05-06 11:28 23.08621 34.68965 34913 ft 496 kts 154°
2026-05-06 11:29 23.02839 34.73045 34912 ft 495 kts 154°
2026-05-06 11:29 22.97112 34.77092 34906 ft 493 kts 154°
2026-05-06 11:30 22.91362 34.81152 34910 ft 493 kts 154°
2026-05-06 11:30 22.85612 34.85208 34916 ft 493 kts 154°
2026-05-06 11:31 22.79865 34.89257 34904 ft 493 kts 154°
2026-05-06 11:31 22.74116 34.93304 34911 ft 493 kts 154°
2026-05-06 11:32 22.68370 34.97345 34914 ft 492 kts 154°
2026-05-06 11:32 22.62625 35.01381 34909 ft 492 kts 154°
2026-05-06 11:33 22.56885 35.05409 34919 ft 492 kts 154°
2026-05-06 11:33 22.51143 35.09435 34901 ft 491 kts 155°
2026-05-06 11:34 22.45411 35.13451 34921 ft 490 kts 155°
2026-05-06 11:34 22.39681 35.17453 34914 ft 490 kts 155°
2026-05-06 11:35 22.33949 35.21448 34922 ft 490 kts 155°
2026-05-06 11:35 22.28222 35.25444 34920 ft 490 kts 155°
2026-05-06 11:36 22.22501 35.29436 34912 ft 489 kts 155°
2026-05-06 11:36 22.16790 35.33416 34900 ft 488 kts 155°
2026-05-06 11:37 22.11125 35.37360 34912 ft 488 kts 155°
2026-05-06 11:37 22.05422 35.41325 34915 ft 488 kts 155°
2026-05-06 11:38 21.99732 35.45285 34909 ft 487 kts 155°
2026-05-06 11:38 21.94045 35.49290 34911 ft 489 kts 155°
2026-05-06 11:39 21.88381 35.53303 34910 ft 487 kts 155°
2026-05-06 11:39 21.82717 35.57311 34896 ft 487 kts 155°
2026-05-06 11:40 21.77050 35.61314 34904 ft 487 kts 155°
2026-05-06 11:40 21.71374 35.65318 34895 ft 487 kts 155°
2026-05-06 11:41 21.65745 35.69286 34891 ft 488 kts 155°
2026-05-06 11:41 21.60067 35.73284 34890 ft 488 kts 155°
2026-05-06 11:42 21.55314 35.76629 34879 ft 487 kts 155°
2026-05-06 11:42 21.49681 35.80591 34886 ft 485 kts 155°
2026-05-06 11:43 21.44068 35.84531 34878 ft 485 kts 155°
2026-05-06 11:43 21.38426 35.88490 34875 ft 485 kts 155°
2026-05-06 11:44 21.29955 35.94425 34872 ft 485 kts 155°
2026-05-06 11:44 21.24305 35.98369 34870 ft 485 kts 155°
2026-05-06 11:45 21.18662 36.02310 34860 ft 484 kts 155°
2026-05-06 11:45 21.13028 36.06246 34863 ft 483 kts 155°
2026-05-06 11:46 21.07397 36.10177 34863 ft 483 kts 155°
2026-05-06 11:46 21.01764 36.14104 34861 ft 483 kts 155°
2026-05-06 11:47 20.96130 36.18031 34857 ft 483 kts 155°
2026-05-06 11:47 20.90487 36.21959 34857 ft 483 kts 155°
2026-05-06 11:48 20.84849 36.25879 34848 ft 483 kts 155°
2026-05-06 11:48 20.79214 36.29789 34848 ft 482 kts 156°
2026-05-06 11:49 20.73341 36.32839 34848 ft 463 kts 171°
2026-05-06 11:49 20.70230 36.33548 34846 ft 452 kts 181°
2026-05-06 11:49 20.67120 36.33701 34930 ft 445 kts 188°
2026-05-06 11:50 20.64035 36.33569 35292 ft 443 kts 190°
2026-05-06 11:50 20.60963 36.33395 35643 ft 442 kts 189°
2026-05-06 11:50 20.57881 36.33259 35780 ft 444 kts 188°
2026-05-06 11:50 20.54784 36.33176 35831 ft 445 kts 187°
2026-05-06 11:51 20.48587 36.33128 35839 ft 446 kts 187°
2026-05-06 11:51 20.42382 36.33138 35841 ft 446 kts 186°
2026-05-06 11:52 20.36173 36.33152 35837 ft 446 kts 186°
2026-05-06 11:52 20.29968 36.33163 35838 ft 446 kts 187°
2026-05-06 11:53 20.23795 36.33171 35835 ft 446 kts 187°
2026-05-06 11:53 20.17592 36.33180 35835 ft 446 kts 187°
2026-05-06 11:54 20.11388 36.33188 35832 ft 446 kts 187°
2026-05-06 11:54 20.05181 36.33195 35815 ft 446 kts 186°
2026-05-06 11:55 19.98964 36.33203 35831 ft 447 kts 186°
2026-05-06 11:55 19.92745 36.33211 35833 ft 447 kts 186°
2026-05-06 11:56 19.86521 36.33220 35835 ft 447 kts 186°
2026-05-06 11:56 19.80297 36.33228 35837 ft 447 kts 186°
2026-05-06 11:57 19.74092 36.33235 35836 ft 448 kts 186°
2026-05-06 11:57 19.67855 36.33244 35843 ft 448 kts 186°
2026-05-06 11:58 19.61618 36.33252 35845 ft 448 kts 186°
2026-05-06 11:58 19.55385 36.33261 35845 ft 448 kts 186°
2026-05-06 11:59 19.49150 36.33268 35842 ft 449 kts 186°
2026-05-06 11:59 19.42898 36.33276 35844 ft 449 kts 186°
2026-05-06 12:00 19.36645 36.33284 35843 ft 449 kts 186°
2026-05-06 12:00 19.30437 36.33293 35844 ft 449 kts 186°
2026-05-06 12:01 19.24187 36.33300 35828 ft 449 kts 186°
2026-05-06 12:01 19.17922 36.33308 35839 ft 451 kts 186°
2026-05-06 12:02 19.11653 36.33316 35850 ft 451 kts 186°
2026-05-06 12:02 19.05382 36.33325 35841 ft 451 kts 186°
2026-05-06 12:03 18.99112 36.33333 35830 ft 450 kts 186°
2026-05-06 12:03 18.92838 36.33341 35834 ft 452 kts 185°
2026-05-06 12:04 18.86554 36.33348 35830 ft 452 kts 185°
2026-05-06 12:04 18.80242 36.33357 35826 ft 453 kts 185°
2026-05-06 12:05 18.73948 36.33365 35815 ft 453 kts 185°
2026-05-06 12:05 18.67645 36.33373 35797 ft 453 kts 185°
2026-05-06 12:06 18.61328 36.33381 35800 ft 454 kts 185°
2026-05-06 12:06 18.55008 36.33389 35794 ft 454 kts 185°
2026-05-06 12:07 18.48729 36.33398 35788 ft 454 kts 185°
2026-05-06 12:07 18.42403 36.33406 35788 ft 454 kts 185°
2026-05-06 12:08 18.36070 36.33413 35775 ft 456 kts 185°
2026-05-06 12:08 18.29728 36.33422 35772 ft 456 kts 185°
2026-05-06 12:09 18.23388 36.33430 35768 ft 456 kts 185°
2026-05-06 12:09 18.17048 36.33439 35761 ft 456 kts 185°
2026-05-06 12:10 18.10702 36.33446 35758 ft 456 kts 185°
2026-05-06 12:10 18.04347 36.33454 35757 ft 457 kts 185°
2026-05-06 12:11 17.97991 36.33463 35759 ft 457 kts 185°
2026-05-06 12:11 17.91636 36.33471 35813 ft 457 kts 185°
2026-05-06 12:12 17.85350 36.33479 35748 ft 457 kts 184°
2026-05-06 12:12 17.78980 36.33486 35749 ft 458 kts 184°
2026-05-06 12:13 17.72601 36.33495 35755 ft 459 kts 184°
2026-05-06 12:13 17.66221 36.33503 35756 ft 459 kts 184°
2026-05-06 12:14 17.59835 36.33511 35755 ft 459 kts 184°
2026-05-06 12:14 17.53449 36.33519 35753 ft 459 kts 184°
2026-05-06 12:15 17.47065 36.33528 35751 ft 459 kts 184°
2026-05-06 12:15 17.40726 36.33536 35752 ft 459 kts 184°
2026-05-06 12:16 17.34347 36.33544 35750 ft 459 kts 184°
2026-05-06 12:16 17.27962 36.33551 35740 ft 460 kts 184°
2026-05-06 12:17 17.21557 36.33559 35748 ft 461 kts 184°
2026-05-06 12:17 17.15145 36.33568 35738 ft 461 kts 184°
2026-05-06 12:18 17.08734 36.33576 35744 ft 461 kts 184°
2026-05-06 12:18 17.02323 36.33584 35737 ft 461 kts 184°
2026-05-06 12:19 16.95899 36.33591 35734 ft 462 kts 184°
2026-05-06 12:19 16.89467 36.33600 35731 ft 462 kts 184°
2026-05-06 12:20 16.83030 36.33608 35732 ft 462 kts 184°
2026-05-06 12:20 16.76593 36.33617 35725 ft 462 kts 184°
2026-05-06 12:21 16.70153 36.33624 35722 ft 464 kts 184°
2026-05-06 12:21 16.63712 36.33632 35718 ft 464 kts 184°
2026-05-06 12:22 16.57269 36.33641 35718 ft 464 kts 183°
2026-05-06 12:22 16.50836 36.33649 35717 ft 464 kts 183°
2026-05-06 12:23 16.44377 36.33657 35703 ft 465 kts 183°
2026-05-06 12:23 16.38001 36.33664 35709 ft 466 kts 183°
2026-05-06 12:24 16.31507 36.33673 35710 ft 466 kts 183°
2026-05-06 12:24 16.25043 36.33681 35710 ft 466 kts 183°
2026-05-06 12:25 16.18555 36.33690 35708 ft 466 kts 183°
2026-05-06 12:25 16.12056 36.33697 35704 ft 468 kts 183°
2026-05-06 12:26 16.05537 36.33705 35704 ft 468 kts 183°
2026-05-06 12:26 15.99018 36.33714 35705 ft 468 kts 183°
2026-05-06 12:27 15.92526 36.33722 35703 ft 468 kts 183°
2026-05-06 12:27 15.86010 36.33730 35701 ft 469 kts 182°
2026-05-06 12:28 15.79475 36.33738 35703 ft 470 kts 182°
2026-05-06 12:28 15.72934 36.33746 35703 ft 470 kts 182°
2026-05-06 12:29 15.66389 36.33755 36069 ft 470 kts 183°
2026-05-06 12:29 15.63121 36.33759 36440 ft 469 kts 183°
2026-05-06 12:29 15.59850 36.33763 36635 ft 470 kts 182°
2026-05-06 12:30 15.53307 36.33771 36700 ft 470 kts 183°
2026-05-06 12:30 15.46800 36.33779 36701 ft 471 kts 183°
2026-05-06 12:31 15.40257 36.33768 36693 ft 470 kts 184°
2026-05-06 12:31 15.33724 36.33461 36695 ft 469 kts 186°
2026-05-06 12:32 15.27207 36.33019 36690 ft 470 kts 186°
2026-05-06 12:32 15.20675 36.32582 36689 ft 470 kts 186°
2026-05-06 12:33 15.15254 36.32233 36686 ft 470 kts 186°
2026-05-06 12:33 15.08723 36.31821 36684 ft 470 kts 186°
2026-05-06 12:34 15.01132 36.31342 36677 ft 470 kts 186°
2026-05-06 12:34 14.95656 36.30997 36682 ft 471 kts 186°
2026-05-06 12:35 14.89117 36.30584 36678 ft 471 kts 186°